Back to catalog

ATLAS 5 CENTAUR DEB

LostHEO
NORAD 46856·DEBRIS·🇺🇸 United States

Launched Oct 17, 2018 from Cape Canaveral Space Force Station

Loading…

Next Passes (next 24 hours)

TLE

StaleSource: Space-Track

Epoch: Sep 10, 2023, 10:18 UTC

1 46856U 18079DM  23253.42976332 -.00000053  00000-0  00000+0 0  9993
2 46856  11.3647 120.6002 4520074 161.8802 221.6793  1.93025800 20080

Track ATLAS 5 CENTAUR DEB in real time with AllMySat

Download on the App Store